This demonstration page uses our WeatherBlox Daily Observations layout. Learn more.

Left ArrowRight Arrow

39.01783, -85.05884

Hourly Observations for September 26, 2018

Temp ( °F °C ) Dew Point ( °F °C ) Humidity (%) Winds ( mph kmh ) Pressure ( in mb ) Visibility ( mi km ) Precip ( " mm )
12:52 am 00:52 Cloudy 73 22.8 72 22.2 96 96 SSW 10 17 29.94 1014 10 16 N/A
1:27 am 01:27 Cloudy 73 22.8 72 22.2 96 96 SSW 10 17 29.94 1014 10 16 N/A
1:52 am 01:52 Cloudy 73 22.8 72 22.2 96 96 SSW 10 17 29.93 1014 10 16 N/A
2:52 am 02:52 Cloudy 73 22.8 72 22.2 96 96 SW 9 15 29.93 1014 10 16 N/A
3:52 am 03:52 Cloudy with Light Rain 73 22.8 72 22.2 96 96 SW 8 13 29.91 1013 9 14 N/A
4:01 am 04:01 Cloudy with Light Rain 73 22.8 72 22.2 96 96 SSW 7 11 29.91 1013 9 14 N/A
4:18 am 04:18 Cloudy 73 22.8 72 22.2 96 96 WSW 6 9 29.91 1013 9 14 N/A
4:52 am 04:52 Cloudy with Light Rain 72 22.2 72 22.2 100 100 SSW 8 13 29.91 1013 7 11 0.01 0.25
5:09 am 05:09 Cloudy 72 22.2 72 22.2 100 100 SSW 6 9 29.91 1013 10 16 N/A
5:35 am 05:35 Cloudy 72 22.2 72 22.2 100 100 SW 7 11 29.91 1013 9 14 N/A
5:52 am 05:52 Cloudy with Light Rain 72 22.2 72 22.2 100 100 W 7 11 29.91 1013 9 14 N/A
6:49 am 06:49 Cloudy with Light Rain 72 22 72 22 100 100 SW 9 15 29.94 1014 8 13 N/A
6:52 am 06:52 Cloudy with Light Rain 72 22.2 72 22.2 100 100 WSW 8 13 29.94 1014 8 13 N/A
7:43 am 07:43 Cloudy with Light Rain 72 22.2 72 22.2 100 100 WSW 6 9 29.94 1014 7 11 N/A
7:52 am 07:52 Cloudy 72 22.2 72 22.2 100 100 W 7 11 29.95 1014 7 11 N/A
8:28 am 08:28 Cloudy with Light Rain 71 21.7 70 21.1 96 96 NW 18 30 29.97 1015 7 11 N/A
8:52 am 08:52 Cloudy 69 20.6 68 20 96 96 WNW 13 20 29.97 1015 10 16 N/A
9:20 am 09:20 Mostly Cloudy 69 20.6 67 19.4 93 93 WNW 3 6 29.97 1015 10 16 N/A
9:52 am 09:52 Mostly Cloudy 71 21.7 67 19.4 87 87 WNW 7 11 29.98 1015 10 16 N/A
10:02 am 10:02 Cloudy 70 21.1 66 18.9 87 87 NW 13 20 30.00 1016 10 16 N/A
10:52 am 10:52 Cloudy 72 22.2 65 18.3 79 79 NW 12 19 30.00 1016 10 16 N/A
11:04 am 11:04 Mostly Cloudy 72 22.2 65 18.3 79 79 NW 10 17 30.00 1016 10 16 N/A
11:52 am 11:52 Cloudy 70 21.1 63 17.2 79 79 NW 15 24 30.04 1017 10 16 N/A
12:42 pm 12:42 Cloudy 71 21.7 62 16.7 73 73 WNW 15 24 30.06 1018 10 16 N/A
12:52 pm 12:52 Cloudy 70 21.1 61 16.1 73 73 NW 13 20 30.06 1018 10 16 N/A
1:52 pm 13:52 Cloudy 68 20 60 15.6 76 76 WNW 15 24 30.07 1018 10 16 N/A
2:27 pm 14:27 Mostly Cloudy 69 20.6 60 15.6 73 73 NNW 12 19 30.06 1018 10 16 N/A
2:52 pm 14:52 Mostly Cloudy 70 21.1 59 15 68 68 WNW 13 20 30.07 1018 10 16 N/A
3:52 pm 15:52 Mostly Cloudy 71 21.7 58 14.4 63 63 NW 12 19 30.05 1018 10 16 N/A
4:19 pm 16:19 Mostly Cloudy 69 20.6 57 13.9 66 66 N 13 20 30.06 1018 10 16 N/A
4:52 pm 16:52 Mostly Cloudy 69 20.6 55 12.8 61 61 NNW 10 17 30.05 1018 10 16 N/A
5:52 pm 17:52 Mostly Cloudy 70 21.1 52 11.1 53 53 NW 12 19 30.05 1018 10 16 N/A
6:52 pm 18:52 Partly Cloudy 67 19.4 51 10.6 57 57 NNW 8 13 30.06 1018 10 16 N/A
7:52 pm 19:52 Partly Cloudy 64 17.8 52 11.1 65 65 NNW 3 6 30.07 1018 10 16 N/A
8:52 pm 20:52 Mostly Cloudy 61 16.1 51 10.6 70 70 NNW 3 6 30.09 1019 10 16 N/A
9:52 pm 21:52 Partly Cloudy 58 14.4 53 11.7 84 84 N N/A 30.11 1020 10 16 N/A
10:52 pm 22:52 Mostly Cloudy 57 13.9 51 10.6 81 81 N 6 9 30.11 1020 10 16 N/A
11:52 pm 23:52 Cloudy 60 15.6 50 10 70 70 N 3 6 30.12 1020 10 16 N/A

Powered by AerisWeather